Date String (YYYY-MM-DD hh:mm:ss) UTC,Instrument flags,absolute air pressure of the measurement (hPa),sample flow rate (lpm),inlet stack bypass flow (lpm),air temperature of the measurement (°C),ambient temperature measured by the external sensor (°C),aerosol sample conditioner tube jacket temperature (°C),OPC LED temperature (°C),internal box temperature (°C),relative humidity of the measurement (%),span deviation,mass concentration of particles derived from Lorenz-Mie calculation of OPC scattering (μg/m³),mass concentration of particles derived from Lorenz-Mie calculation of OPC scattering (μg/m³),mass concentration of particles derived from Lorenz-Mie calculation of OPC scattering (μg/m³)
DateTimeUTC,F1_M11,P_M11,Q1_M11,Q2_M11,T1_M11,T2_M11,T3_M11,T4_M11,T5_M11,U1_M11,ZSPAN_M11,X2_M11,X0_M11,X1_M11
2023-07-30 02:00:00,SystemResetWarning,0837.2,4.96,000.00,033.7,026.9,000.0,040.9,032.1,34.6,0000.0,0007.98,0021.46,0006.22
2023-07-30 02:01:00,SystemResetWarning,0837.2,5.02,000.00,033.8,027.2,000.0,040.9,032.1,34.2,0000.0,0007.94,0021.42,0006.23
2023-07-30 02:02:00,SystemResetWarning,0837.2,4.99,000.00,033.8,027.5,000.0,041.0,032.2,34.2,0000.0,0007.85,0022.28,0006.23
2023-07-30 02:03:00,SystemResetWarning,0837.2,5.00,000.00,033.8,027.8,000.0,041.0,032.2,34.2,0000.0,0007.89,0022.12,0006.23
2023-07-30 02:04:00,SystemResetWarning,0837.2,4.99,000.00,033.8,028.0,000.0,041.1,032.3,34.2,0000.0,0007.85,0022.40,0006.23
2023-07-30 02:05:00,SystemResetWarning,0837.2,5.00,000.00,033.8,027.1,000.0,041.0,032.2,34.3,0000.0,0007.81,0022.88,0006.21
2023-07-30 02:06:00,SystemResetWarning,0837.1,5.00,000.00,033.7,025.6,000.0,040.9,032.0,34.2,0000.0,0007.83,0023.44,0006.18
2023-07-30 02:07:00,SystemResetWarning,0837.0,5.00,000.00,033.6,025.2,000.0,040.8,031.8,34.0,0000.0,0007.81,0022.74,0006.14
2023-07-30 02:08:00,SystemResetWarning,0836.9,5.01,000.00,033.4,025.5,000.0,040.8,031.6,34.5,0000.0,0007.81,0023.54,0006.11
2023-07-30 02:09:00,SystemResetWarning,0837.0,4.98,000.00,033.2,025.9,000.0,040.9,031.6,35.1,0000.1,0007.81,0024.46,0006.08
2023-07-30 02:10:00,SystemResetWarning,0837.0,5.02,000.00,033.1,026.3,000.0,040.9,031.8,35.4,0000.5,0007.81,0025.20,0006.07
2023-07-30 02:11:00,SystemResetWarning,0837.0,5.01,000.00,033.3,026.8,000.0,040.9,032.0,35.0,0000.1,0007.78,0024.15,0006.06
2023-07-30 02:12:00,SystemResetWarning,0837.0,4.97,000.00,033.4,027.1,000.0,040.9,032.1,34.6,0000.1,0007.76,0023.76,0006.04
2023-07-30 02:13:00,SystemResetWarning,0837.0,5.01,000.00,033.5,027.4,000.0,040.9,032.1,34.3,-000.0,0007.82,0022.96,0006.02
2023-07-30 02:14:00,SystemResetWarning,0837.0,5.01,000.00,033.5,027.7,000.0,040.9,032.2,34.1,-000.1,0007.71,0022.73,0006.00
2023-07-30 02:15:00,SystemResetWarning,0837.0,5.00,000.00,033.5,028.0,000.0,041.0,032.2,34.0,0000.0,0007.68,0022.80,0005.99
2023-07-30 02:16:00,SystemResetWarning,0836.9,5.00,000.00,033.5,028.0,000.0,041.0,032.2,34.0,0000.0,0007.63,0022.77,0005.99
2023-07-30 02:17:00,SystemResetWarning,0836.9,4.98,000.00,033.5,026.7,000.0,040.8,032.0,33.9,0000.0,0007.58,0023.53,0005.99
2023-07-30 02:18:00,SystemResetWarning,0837.0,5.01,000.00,033.4,025.5,000.0,040.7,031.8,33.9,0000.0,0007.62,0022.54,0006.01
2023-07-30 02:19:00,SystemResetWarning,0836.9,5.01,000.00,033.3,025.3,000.0,040.7,031.6,33.9,0000.0,0007.63,0021.84,0006.02
2023-07-30 02:20:00,SystemResetWarning,0836.9,5.00,000.00,033.0,025.5,000.0,040.7,031.4,34.5,0000.5,0007.64,0021.95,0006.03
2023-07-30 02:21:00,SystemResetWarning,0836.8,4.97,000.00,032.9,026.0,000.0,040.7,031.5,35.0,0000.0,0007.66,0021.56,0006.04
2023-07-30 02:22:00,SystemResetWarning,0836.8,5.04,000.00,032.8,026.4,000.0,040.7,031.7,34.9,0000.0,0007.65,0022.82,0006.04
2023-07-30 02:23:00,SystemResetWarning,0836.9,4.96,000.00,032.9,026.8,000.0,040.7,031.8,34.7,0000.6,0007.66,0023.17,0006.05
2023-07-30 02:24:00,SystemResetWarning,0836.9,5.01,000.00,032.9,027.2,000.0,040.7,031.9,34.6,0001.1,0007.67,0024.75,0006.06
2023-07-30 02:25:00,SystemResetWarning,0836.9,5.01,000.00,032.9,027.5,000.0,040.7,032.0,34.6,0000.9,0007.74,0025.28,0006.06
2023-07-30 02:26:00,SystemResetWarning,0836.9,5.00,000.00,032.9,027.8,000.0,040.7,032.0,34.7,0000.6,0007.78,0025.34,0006.05
2023-07-30 02:27:00,SystemResetWarning,0836.8,5.00,000.00,032.8,027.9,000.0,040.7,032.0,34.8,0000.1,0007.85,0024.78,0006.04
2023-07-30 02:28:00,SystemResetWarning,0836.7,4.98,000.00,032.9,026.9,000.0,040.5,032.0,35.0,0000.4,0007.81,0023.91,0006.03
2023-07-30 02:29:00,SystemResetWarning,0836.7,5.02,000.00,032.8,025.5,000.0,040.4,031.8,35.1,0000.8,0007.74,0024.98,0006.01
2023-07-30 02:30:00,SystemResetWarning,0836.6,5.00,000.00,032.9,025.2,000.0,040.3,031.7,35.1,0000.0,0007.68,0024.34,0005.98
2023-07-30 02:31:00,SystemResetWarning,0836.6,4.99,000.00,033.0,025.4,000.0,040.3,031.6,35.0,0000.5,0007.66,0023.97,0005.96
2023-07-30 02:32:00,SystemResetWarning,0836.7,5.02,000.00,033.1,025.8,000.0,040.3,031.7,34.7,0000.0,0007.67,0024.49,0005.95
2023-07-30 02:33:00,SystemResetWarning,0836.7,4.98,000.00,033.2,026.3,000.0,040.4,031.8,34.5,0000.0,0007.66,0023.57,0005.94
2023-07-30 02:34:00,SystemResetWarning,0836.8,5.01,000.00,033.2,026.7,000.0,040.4,031.9,34.4,0000.0,0007.67,0024.02,0005.93
2023-07-30 02:35:00,SystemResetWarning,0836.8,5.01,000.00,033.2,027.1,000.0,040.5,031.9,34.3,0000.0,0007.69,0023.89,0005.92
2023-07-30 02:36:00,SystemResetWarning,0836.8,5.00,000.00,033.2,027.4,000.0,040.6,032.0,34.3,0000.0,0007.68,0024.00,0005.91
2023-07-30 02:37:00,SystemResetWarning,0836.8,5.00,000.00,033.2,027.7,000.0,040.6,032.0,34.4,0000.0,0007.71,0024.91,0005.91
2023-07-30 02:38:00,SystemResetWarning,0836.8,5.00,000.00,033.2,027.9,000.0,040.7,032.0,34.6,0000.0,0007.69,0024.96,0005.92
2023-07-30 02:39:00,SystemResetWarning,0836.8,5.00,000.00,033.1,027.9,000.0,040.7,032.1,34.9,0000.0,0007.76,0026.34,0005.94
2023-07-30 02:40:00,SystemResetWarning,0836.8,4.99,000.00,033.1,026.5,000.0,040.5,032.0,34.7,0000.0,0007.81,0026.15,0005.97
2023-07-30 02:41:00,SystemResetWarning,0836.7,5.01,000.00,033.1,025.3,000.0,040.4,031.8,34.9,0000.0,0007.89,0026.68,0006.00
2023-07-30 02:42:00,SystemResetWarning,0836.6,5.00,000.00,032.9,025.2,000.0,040.4,031.6,35.1,0000.0,0007.85,0027.01,0006.02
2023-07-30 02:43:00,SystemResetWarning,0836.6,5.01,000.00,032.8,025.5,000.0,040.4,031.5,35.2,0000.0,0007.83,0025.57,0006.04
2023-07-30 02:44:00,SystemResetWarning,0836.6,5.00,000.00,033.0,025.9,000.0,040.4,031.7,35.1,0000.0,0007.80,0025.56,0006.06
2023-07-30 02:45:00,SystemResetWarning,0836.6,4.99,000.00,033.2,026.4,000.0,040.4,031.9,34.6,0000.0,0007.88,0024.80,0006.07
2023-07-30 02:46:00,SystemResetWarning,0836.6,4.99,000.00,033.3,026.8,000.0,040.5,031.9,34.5,0000.0,0007.86,0023.74,0006.10
2023-07-30 02:47:00,SystemResetWarning,0836.6,5.02,000.00,033.3,027.1,000.0,040.5,032.0,34.4,0000.0,0007.89,0023.39,0006.14
2023-07-30 02:48:00,SystemResetWarning,0836.6,5.00,000.00,033.3,027.5,000.0,040.6,032.0,34.2,0000.0,0007.89,0022.95,0006.16
2023-07-30 02:49:00,SystemResetWarning,0836.6,4.99,000.00,033.3,027.7,000.0,040.6,032.0,33.9,0000.0,0007.85,0023.41,0006.15
2023-07-30 02:50:00,SystemResetWarning,0836.6,5.00,000.00,033.3,027.9,000.0,040.7,032.1,33.9,0000.0,0007.78,0024.08,0006.12
2023-07-30 02:51:00,SystemResetWarning,0836.6,5.00,000.00,033.2,028.1,000.0,040.7,032.1,34.0,0000.0,0007.70,0023.00,0006.09
2023-07-30 02:52:00,SystemResetWarning,0836.7,4.98,000.00,033.3,027.0,000.0,040.6,032.0,34.0,0000.0,0007.70,0023.13,0006.07
2023-07-30 02:53:00,SystemResetWarning,0836.7,5.01,000.00,033.2,025.6,000.0,040.5,031.8,34.1,0000.0,0007.72,0022.91,0006.06
2023-07-30 02:54:00,SystemResetWarning,0836.7,5.00,000.00,033.1,025.2,000.0,040.4,031.6,34.3,0000.0,0007.79,0023.59,0006.05
2023-07-30 02:55:00,SystemResetWarning,0836.8,5.01,000.00,032.8,025.3,000.0,040.5,031.4,34.7,0000.0,0007.85,0024.16,0006.03
2023-07-30 02:56:00,SystemResetWarning,0836.8,4.98,000.00,032.6,025.7,000.0,040.5,031.4,35.1,0000.0,0007.79,0024.09,0006.01
2023-07-30 02:57:00,SystemResetWarning,0836.8,5.02,000.00,032.6,026.2,000.0,040.5,031.6,35.4,0000.0,0007.75,0025.08,0005.99
2023-07-30 02:58:00,SystemResetWarning,0836.8,5.00,000.00,032.8,026.7,000.0,040.5,031.8,35.3,0000.0,0007.70,0024.70,0005.96
2023-07-30 02:59:00,SystemResetWarning,0836.9,4.99,000.00,033.0,027.0,000.0,040.5,032.0,34.6,0000.0,0007.69,0024.94,0005.96
